Вернуться в каталог

STARLINK-35502

АктивенСвязьVLEO
NORAD 66435·PAYLOAD·🇺🇸 United States

Запущен Nov 11, 2025 с Cape Canaveral Space Force Station

Loading…

Ближайшие Пролёты (ближайшие 24 часа)

TLE

СвежийSource: CelesTrak SupGP

Эпоха: Sep 15, 2026, 02:31 UTC

1 66435C 25259P   26258.10534722  .00013072  00000+0  47348-3 0  2583
2 66435  42.9998 284.2526 0001242 261.5637 121.7139 15.27571854    15

Отслеживайте STARLINK-35502 в реальном времени с AllMySat

Download on the App Store